Regional Weather Roundup
Issued by NWS

Home | Current Version | Previous Version | Graphics & Text | Print | Product List | Glossary On
Versions: 1 2 3 4 5 6 7 8 9 10 11 12 13 14 15 16 17 18 19 20 21 22 23 24 25 26 27 28 29 30 31 32 33 34 35 36 37 38 39 40 41 42 43 44 45 46 47 48 49 50
000
ASUS43 KDTX 101001
RWRMI
MICHIGAN HOURLY REGIONAL WEATHER ROUNDUP
NATIONAL WEATHER SERVICE DETROIT/PONTIAC MI
500 AM EST SAT DEC 10 2016

NOTE: "FAIR" INDICATES FEW OR NO CLOUDS BELOW 12,000 FEET WITH NO
SIGNIFICANT WEATHER AND/OR OBSTRUCTION TO VISIBILITY.

MIZ047>049-052>055-059>063-066>070-074>076-081>083-101100-
SOUTHEAST LOWER MICHIGAN

CITY           SKY/WX    TMP DP  RH WIND       PRES   REMARKS
ADRIAN         CLOUDY    21  17  84 W9        30.45S WCI  11
ALMA           PTCLDY    20  12  71 W7        30.40S WCI  11
ANN ARBOR      CLOUDY    22  18  85 SW8       30.42R WCI  12
BAD AXE        CLOUDY    24  17  74 W12       30.35S WCI  13
CARO           CLOUDY    24  17  74 W9G16     30.37S WCI  14
DETROIT CITY   CLOUDY    24  20  84 W9        30.41S WCI  14
DETROIT        LGT SNOW  24  20  84 SW9       30.43S FOG     WCI  14
FLINT          CLOUDY    23  16  74 W13       30.39S WCI  11
GROSSE ILE     CLOUDY    24  19  81 W9G16     30.42S WCI  15
HILLSDALE      LGT SNOW  19  16  86 SW5       30.41S WCI  13
HOWELL         CLOUDY    23  19  87 W9        30.40R WCI  13

CITY           SKY/WX    TMP DP  RH WIND       PRES   REMARKS
JACKSON        LGT SNOW  20  16  84 SW9       30.42S WCI   9
LAMBERTVILLE   CLOUDY    25  18  74 W6        30.45S WCI  18
LANSING        CLEAR     21  15  78 W8        30.42R WCI  11
LAPEER         NOT AVBL
MASON          PTCLDY    20  18  91 SW3       30.41S
MONROE         CLOUDY    24  19  83 W12       30.43S WCI  13
MT. CLEMENS    CLOUDY    25  16  69 W14       30.38S WCI  13
PONTIAC        CLOUDY    23  17  78 W9G21     30.37S WCI  13
PORT HOPE        N/A     25  17  72 W9G18     30.32S WCI  15
PORT HURON     CLOUDY    25  18  74 W7        30.37F WCI  17
TRI CITIES     CLOUDY    23  16  74 W9        30.39S WCI  13
MIDLAND        CLOUDY    25  14  64 W12       30.38S WCI  14
TROY           CLOUDY    26  15  65 W10       30.42S WCI  15
SAGINAW HB     CLOUDY    27  14  59 W10G22    30.39R WCI  17
$$
MIZ043>046-050>051-056>058-064>065-071>073-077>080-101100-
SOUTHWEST LOWER MICHIGAN

CITY           SKY/WX    TMP DP  RH WIND       PRES   REMARKS
BATTLE CREEK   LGT SNOW  20  18  92 SW9       30.42F FOG     WCI   9
BENTON HARBOR  LGT SNOW  26  15  63 W15       30.46S WCI  14
BIG RAPIDS     CLOUDY    20  12  71 W6        30.37S WCI  13
COLDWATER      LGT SNOW  21  18  89 SW10      30.44R WCI   9
FREMONT        LGT SNOW  19  18  93 CALM      30.40F
HOLLAND        LGT SNOW  25  18  74 W14G23    30.43S WCI  13
GRAND RAPIDS   LGT SNOW  21  18  88 SW6       30.42S VSB 1   WCI  13
IONIA          MOCLDY    18  13  82 W6        30.41R WCI   9
KALAMAZOO      LGT SNOW  21  17  84 SW7       30.43S FOG     WCI  12
LUDINGTON      CLOUDY    24  12  62 W8G16     30.40S WCI  14
MARSHALL       LGT SNOW  20  18  91 SW6       30.42S WCI  13
MOUNT PLEASANT MOCLDY    23  13  65 W9        30.38S WCI  13
MUSKEGON       LGT SNOW  26  18  71 W10       30.42F WCI  16
SOUTH HAVEN    CLOUDY    26  18  73 W10G16    30.45S WCI  16
$$
MIZ016>042-101100-
NORTHERN LOWER MICHIGAN

CITY           SKY/WX    TMP DP  RH WIND       PRES   REMARKS
ALPENA         CLOUDY    22  18  85 W5        30.32S WCI  16
BEAVER ISLAND  CLOUDY    20  12  69 W14G22    30.34S WCI   7
BELLAIRE       CLOUDY    22  17  79 W6G16     30.36R WCI  15
CADILLAC       LGT SNOW  18  14  84 W6        30.32S WCI   9
CHARLEVOIX     LGT SNOW  23  16  73 W21G28    30.35R WCI   8
FRANKFORT      FLURRIES  24  16  73 W9G18     30.37F WCI  14
GAYLORD        LGT SNOW  20  15  81 W15       30.28S VSB 1   WCI   6
GRAYLING       PTCLDY    16  12  86 SW6       30.32S WCI   7
HARBOR SPRINGS CLOUDY    21  13  70 W9        30.31S WCI  11
HOUGHTON LAKE  CLOUDY    19  13  77 W14G21    30.33F WCI   6
MANISTEE       FLURRIES  22  13  68 W16       30.39F WCI   8
OSCODA         CLOUDY    24  17  77 MISG      30.33S
PELLSTON       CLOUDY    21  10  62 W9        30.31F WCI  11
ROGERS CITY    CLOUDY    22  19  87 W5        30.32S WCI  16
TRAVERSE CITY  FLURRIES  21  15  78 W7        30.36F WCI  12
$$
MIZ007>008-015-101100-
EASTERN UPPER MICHIGAN

CITY           SKY/WX    TMP DP  RH WIND       PRES   REMARKS
KINROSS        CLEAR     12  10  92 SW5       30.28S WCI   4
MACKINAC ISLAN FLURRIES  21  15  76 W13       30.30S WCI   9
NEWBERRY       PTCLDY    10   6  87 W10       30.28S WCI  -4
S. S. MARIE    CLOUDY    15  11  83 S7        30.28S WCI   5
MUNISING         N/A     10   2  69 SW8       30.33F WCI  -2
$$
MIZ004>006-011>014-085-101100-
CENTRAL UPPER MICHIGAN

CITY           SKY/WX    TMP DP  RH WIND       PRES   REMARKS
MANISTIQUE     CLEAR     10   4  79 W10       30.33F WCI  -4
ESCANABA       CLEAR     12   4  70 W9        30.39R WCI   0
MENOMINEE      CLOUDY    17   6  62 NW8       30.41S WCI   7
SAWYER-GWINN   CLEAR      6   1  78 W8        30.31S WCI  -6
$$
MIZ001>003-009>011-084-101100-
WESTERN UPPER MICHIGAN

CITY           SKY/WX    TMP DP  RH WIND       PRES   REMARKS
IRON MOUNTAIN  CLEAR      9  -3  58 W10       30.34F WCI  -5
HOUGHTON       LGT SNOW  13   8  81 W10       30.30S WCI   0
COPPER HARBOR    N/A     21  14  74 NE13G23   30.31S WCI   9
IRONWOOD       LGT SNOW   7   3  84 W10       30.39S FOG     WCI  -8
$$

ABBREVIATIONS USED IN REMARKS
   TC - TEMPERATURE IN CELSIUS
  WCI - WIND CHILL INDEX
   HX - HEAT INDEX
  VSB - VISIBILITY





USA.gov is the U.S. government's official web portal to all federal, state and local government web resources and services.